Weather in Zhuravka

Russia / Voronezh Oblast     50°02′47″N   40°35′44″E
temp.,
°C
wind,
m/s
gust,
m/s
humid.,
%
clouds,
%
prec.,
mm/h
press.,
hPa
HPBL,
m
13 june, sun
sun1300:00+15sw369214 0.0 1010118
03:00+14ssw23931 0.0 101038
06:00+16ssw25890 0.0 1010164
09:00+21sw45740 0.1 1011704
12:00+23sw456143 1.4 10101607
15:00+22sw467040 2.0 1010524
18:00+23wsw24711 1.3 1010683
21:00+18s22813 2.0 101211
14 june, mon
mon1400:00+17wsw11840 0.2 101211
03:00+16ne008413 0.2 101311
06:00+18ne118167 0.0 101357
09:00+22ene337120 0.0 1014446
12:00+25e22535 0.3 10141590
15:00+25ene1253100 0.3 10131471
18:00+22se1274100 0.1 101326
21:00+21nne1172100 0.1 101411
15 june, tue
tue1500:00+19ne228399 0.3 101322
03:00+16ese2295100 1.1 101317
06:00+17e1294100 0.2 1013110
09:00+18nne1188100 0.3 1012227
12:00+19ene1189100 0.6 1012119
15:00+22nne3468100 1.4 1011822
18:00+20nnw358064 0.1 1010506
21:00+18wsw2285100 0.1 100923
16 june, wed
wed1600:00+18wsw358488 0.0 1008129
03:00+17sw359084 0.0 1008125
06:00+18sw378976 0.0 1008249
09:00+20sw567996 0.0 1008584
12:00+23wsw466734 0.5 10091307
15:00+24wsw576513 1.6 10091317
18:00+23w35733 0.1 1010824
21:00+18w12900 0.1 101211
17 june, thu
thu1700:00+16ssw11920 0.0 101211
03:00+16n11920 0.0 101311
06:00+18ne12880 0.0 101499
09:00+22ne34740 0.0 1015643
12:00+26ene445999 0.0 10151268
15:00+27ne555782 0.0 10151761
18:00+24ne697293 0.0 1015825
21:00+20ne814847 0.0 1017591